Location: Bailleul
(50.3375°N, 2.8513°E)
Time: 04:38:13
(UTC+00:00)

Cosmos 676 Rocket - Pass Details

Date: 19 April 2021
Orbit: 755 x 783 km, 74.0° (Epoch: 09 May)

Event Time Altitude Azimuth Distance (km) Brightness Sun altitude
Exits shadow 21:30:07 42° 180° (S) 1,078 4.4 -21.3°
Maximum altitude 21:31:50 70° 110° (ESE) 807 3.9 -21.4°
Drops below altitude 10° 21:36:59 10° 28° (NNE) 2,293 6.8 -21.9°
Sets 21:39:22 0° 26° (NNE) 3,222 7.6 -22.1°
